contact:dominique.lefevre@mio.osupytheas.fr, maurice.libes@osupytheas.fr, didier.mallarino@osupytheas.fr
Project:EMSO http://www.emso-fr.org/EMSO-France
Depth: 2436.0 m
Title:EMSO Ligure Ouest : Data MII capteur MICROCAT
DateTime_Computer,Latitude,Longitude,Temperature,Conductivity,Pressure,DateTime_Instrument
DateTime_Computer,Latitude,Longitude,degC,S m-1,dbar,DateTime_Instrument
2021-07-03T00:01:54Z,42.805,6.029,13.3025,4.60028,2470.404,2021-7-03T02:03:09Z
2021-07-03T00:04:57Z,42.805,6.029,13.3021,4.60027,2470.427,2021-7-03T02:06:12Z
2021-07-03T00:08:00Z,42.805,6.029,13.3024,4.60041,2470.413,2021-7-03T02:09:15Z
2021-07-03T00:11:04Z,42.805,6.029,13.3019,4.60031,2470.404,2021-7-03T02:12:18Z
2021-07-03T00:14:07Z,42.805,6.029,13.3029,4.60042,2470.413,2021-7-03T02:15:22Z
2021-07-03T00:17:10Z,42.805,6.029,13.3019,4.60097,2470.366,2021-7-03T02:18:25Z
2021-07-03T00:20:13Z,42.805,6.029,13.3039,4.60056,2470.404,2021-7-03T02:21:28Z
2021-07-03T00:23:16Z,42.805,6.029,13.3021,4.60052,2470.366,2021-7-03T02:24:31Z
2021-07-03T00:26:19Z,42.805,6.029,13.3027,4.60051,2470.39,2021-7-03T02:27:34Z
2021-07-03T00:29:22Z,42.805,6.029,13.3029,4.60017,2470.404,2021-7-03T02:30:37Z
2021-07-03T00:32:25Z,42.805,6.029,13.3011,4.60035,2470.366,2021-7-03T02:33:40Z
2021-07-03T00:35:29Z,42.805,6.029,13.3015,4.60039,2470.427,2021-7-03T02:36:43Z
2021-07-03T00:38:32Z,42.805,6.029,13.3027,4.60059,2470.366,2021-7-03T02:39:47Z
2021-07-03T00:41:35Z,42.805,6.029,13.3046,4.60029,2470.39,2021-7-03T02:42:50Z
2021-07-03T00:44:38Z,42.805,6.029,13.3034,4.60042,2470.39,2021-7-03T02:45:53Z
2021-07-03T00:47:41Z,42.805,6.029,13.3029,4.60039,2470.38,2021-7-03T02:48:56Z
2021-07-03T00:50:44Z,42.805,6.029,13.3031,4.60079,2470.404,2021-7-03T02:51:59Z
2021-07-03T00:53:47Z,42.805,6.029,13.3035,4.60061,2470.38,2021-7-03T02:55:02Z
2021-07-03T00:56:50Z,42.805,6.029,13.3043,4.60062,2470.366,2021-7-03T02:58:05Z
2021-07-03T00:59:53Z,42.805,6.029,13.3035,4.60026,2470.39,2021-7-03T03:01:08Z
2021-07-03T01:02:57Z,42.805,6.029,13.3039,4.60031,2470.404,2021-7-03T03:04:12Z
2021-07-03T01:06:00Z,42.805,6.029,13.3020,4.60050,2470.413,2021-7-03T03:07:15Z
2021-07-03T01:09:03Z,42.805,6.029,13.3022,4.60057,2470.39,2021-7-03T03:10:18Z
2021-07-03T01:12:06Z,42.805,6.029,13.3027,4.60049,2470.39,2021-7-03T03:13:21Z
2021-07-03T01:15:09Z,42.805,6.029,13.3028,4.60049,2470.39,2021-7-03T03:16:24Z
2021-07-03T01:18:12Z,42.805,6.029,13.3024,4.60057,2470.404,2021-7-03T03:19:27Z
2021-07-03T01:21:15Z,42.805,6.029,13.3018,4.60027,2470.427,2021-7-03T03:22:30Z
2021-07-03T01:24:18Z,42.805,6.029,13.3024,4.60091,2470.427,2021-7-03T03:25:33Z
2021-07-03T01:27:22Z,42.805,6.029,13.3022,4.60101,2470.427,2021-7-03T03:28:36Z
2021-07-03T01:30:25Z,42.805,6.029,13.3046,4.60046,2470.39,2021-7-03T03:31:40Z
2021-07-03T01:33:28Z,42.805,6.029,13.3024,4.60039,2470.413,2021-7-03T03:34:43Z
2021-07-03T01:36:31Z,42.805,6.029,13.3022,4.60023,2470.437,2021-7-03T03:37:46Z
2021-07-03T01:39:34Z,42.805,6.029,13.3009,4.60058,2470.413,2021-7-03T03:40:49Z
2021-07-03T01:42:37Z,42.805,6.029,13.3021,4.60046,2470.366,2021-7-03T03:43:52Z
2021-07-03T01:45:40Z,42.805,6.029,13.3043,4.60016,2470.357,2021-7-03T03:46:55Z
2021-07-03T01:48:43Z,42.805,6.029,13.3034,4.60046,2470.39,2021-7-03T03:49:58Z
2021-07-03T01:51:46Z,42.805,6.029,13.3019,4.60043,2470.427,2021-7-03T03:53:01Z
2021-07-03T01:54:50Z,42.805,6.029,13.3025,4.60056,2470.413,2021-7-03T03:56:05Z
2021-07-03T01:57:53Z,42.805,6.029,13.3028,4.60047,2470.437,2021-7-03T03:59:08Z
2021-07-03T02:00:56Z,42.805,6.029,13.3036,4.60046,2470.404,2021-7-03T04:02:11Z
2021-07-03T02:03:59Z,42.805,6.029,13.3043,4.60051,2470.39,2021-7-03T04:05:14Z
2021-07-03T02:07:02Z,42.805,6.029,13.3040,4.60052,2470.427,2021-7-03T04:08:17Z
2021-07-03T02:10:05Z,42.805,6.029,13.3041,4.60027,2470.413,2021-7-03T04:11:20Z
2021-07-03T02:13:08Z,42.805,6.029,13.3031,4.60052,2470.39,2021-7-03T04:14:23Z
2021-07-03T02:16:11Z,42.805,6.029,13.3015,4.60051,2470.413,2021-7-03T04:17:26Z
2021-07-03T02:19:15Z,42.805,6.029,13.3025,4.60046,2470.427,2021-7-03T04:20:29Z
2021-07-03T02:22:18Z,42.805,6.029,13.3015,4.60061,2470.427,2021-7-03T04:23:33Z
2021-07-03T02:25:21Z,42.805,6.029,13.3021,4.60041,2470.404,2021-7-03T04:26:36Z
2021-07-03T02:28:24Z,42.805,6.029,13.3029,4.60041,2470.413,2021-7-03T04:29:39Z
2021-07-03T02:31:27Z,42.805,6.029,13.3025,4.60069,2470.404,2021-7-03T04:32:42Z
2021-07-03T02:34:30Z,42.805,6.029,13.3046,4.60068,2470.39,2021-7-03T04:35:45Z
2021-07-03T02:37:33Z,42.805,6.029,13.3026,4.60061,2470.404,2021-7-03T04:38:48Z
2021-07-03T02:40:36Z,42.805,6.029,13.3043,4.60051,2470.38,2021-7-03T04:41:51Z
2021-07-03T02:43:39Z,42.805,6.029,13.3041,4.60046,2470.404,2021-7-03T04:44:54Z
2021-07-03T02:46:43Z,42.805,6.029,13.3039,4.60055,2470.39,2021-7-03T04:47:58Z
2021-07-03T02:49:46Z,42.805,6.029,13.3051,4.60057,2470.404,2021-7-03T04:51:01Z
2021-07-03T02:52:49Z,42.805,6.029,13.3041,4.60034,2470.427,2021-7-03T04:54:04Z
2021-07-03T02:55:52Z,42.805,6.029,13.3063,4.60053,2470.39,2021-7-03T04:57:07Z
2021-07-03T02:58:55Z,42.805,6.029,13.3030,4.60064,2470.366,2021-7-03T05:00:10Z
2021-07-03T03:01:58Z,42.805,6.029,13.3026,4.60067,2470.38,2021-7-03T05:03:13Z
2021-07-03T03:05:01Z,42.805,6.029,13.3032,4.60044,2470.39,2021-7-03T05:06:16Z
2021-07-03T03:08:04Z,42.805,6.029,13.3048,4.60049,2470.404,2021-7-03T05:09:19Z
2021-07-03T03:11:07Z,42.805,6.029,13.3035,4.60068,2470.39,2021-7-03T05:12:22Z
2021-07-03T03:14:11Z,42.805,6.029,13.3037,4.60080,2470.413,2021-7-03T05:15:26Z
2021-07-03T03:17:14Z,42.805,6.029,13.3037,4.60036,2470.404,2021-7-03T05:18:29Z
2021-07-03T03:20:17Z,42.805,6.029,13.3036,4.60043,2470.413,2021-7-03T05:21:32Z
2021-07-03T03:23:20Z,42.805,6.029,13.3040,4.60049,2470.427,2021-7-03T05:24:35Z
2021-07-03T03:26:23Z,42.805,6.029,13.3028,4.60039,2470.39,2021-7-03T05:27:38Z
2021-07-03T03:29:26Z,42.805,6.029,13.3034,4.60072,2470.38,2021-7-03T05:30:41Z
2021-07-03T03:32:29Z,42.805,6.029,13.3054,4.60068,2470.39,2021-7-03T05:33:44Z
2021-07-03T03:35:32Z,42.805,6.029,13.3036,4.60050,2470.404,2021-7-03T05:36:47Z
2021-07-03T03:38:36Z,42.805,6.029,13.3054,4.60059,2470.366,2021-7-03T05:39:51Z
2021-07-03T03:41:39Z,42.805,6.029,13.3039,4.60088,2470.39,2021-7-03T05:42:54Z
2021-07-03T03:44:42Z,42.805,6.029,13.3032,4.60024,2470.413,2021-7-03T05:45:57Z
2021-07-03T03:47:45Z,42.805,6.029,13.3034,4.60041,2470.404,2021-7-03T05:49:00Z
2021-07-03T03:50:48Z,42.805,6.029,13.3052,4.60029,2470.39,2021-7-03T05:52:03Z
2021-07-03T03:53:51Z,42.805,6.029,13.3034,4.60064,2470.366,2021-7-03T05:55:06Z
2021-07-03T03:56:54Z,42.805,6.029,13.3023,4.60050,2470.39,2021-7-03T05:58:09Z
2021-07-03T03:59:57Z,42.805,6.029,13.3023,4.60052,2470.39,2021-7-03T06:01:12Z
2021-07-03T04:03:00Z,42.805,6.029,13.3041,4.60031,2470.404,2021-7-03T06:04:15Z
2021-07-03T04:06:04Z,42.805,6.029,13.3010,4.60069,2470.38,2021-7-03T06:07:19Z
2021-07-03T04:09:07Z,42.805,6.029,13.3048,4.60043,2470.357,2021-7-03T06:10:22Z
2021-07-03T04:12:10Z,42.805,6.029,13.3029,4.60061,2470.366,2021-7-03T06:13:25Z
2021-07-03T04:15:13Z,42.805,6.029,13.3030,4.60057,2470.38,2021-7-03T06:16:28Z
2021-07-03T04:18:16Z,42.805,6.029,13.3048,4.60074,2470.38,2021-7-03T06:19:31Z
2021-07-03T04:21:19Z,42.805,6.029,13.3031,4.60045,2470.38,2021-7-03T06:22:34Z
2021-07-03T04:24:22Z,42.805,6.029,13.3038,4.60052,2470.366,2021-7-03T06:25:37Z
2021-07-03T04:27:25Z,42.805,6.029,13.3013,4.60035,2470.404,2021-7-03T06:28:40Z
2021-07-03T04:30:29Z,42.805,6.029,13.3029,4.60054,2470.357,2021-7-03T06:31:44Z
2021-07-03T04:33:32Z,42.805,6.029,13.3020,4.60067,2470.357,2021-7-03T06:34:47Z
2021-07-03T04:36:35Z,42.805,6.029,13.3034,4.60031,2470.343,2021-7-03T06:37:50Z
2021-07-03T04:39:38Z,42.805,6.029,13.3016,4.60026,2470.376,2021-7-03T06:40:53Z
2021-07-03T04:42:41Z,42.805,6.029,13.3011,4.60042,2470.38,2021-7-03T06:43:56Z
2021-07-03T04:45:44Z,42.805,6.029,13.3026,4.60052,2470.366,2021-7-03T06:46:59Z
2021-07-03T04:48:47Z,42.805,6.029,13.3045,4.60020,2470.38,2021-7-03T06:50:02Z
2021-07-03T04:51:50Z,42.805,6.029,13.3039,4.60074,2470.357,2021-7-03T06:53:05Z
2021-07-03T04:54:53Z,42.805,6.029,13.3063,4.60049,2470.32,2021-7-03T06:56:08Z
2021-07-03T04:57:57Z,42.805,6.029,13.3032,4.60051,2470.357,2021-7-03T06:59:12Z
2021-07-03T05:01:00Z,42.805,6.029,13.3039,4.60047,2470.366,2021-7-03T07:02:15Z
2021-07-03T05:04:03Z,42.805,6.029,13.3008,4.60048,2470.357,2021-7-03T07:05:18Z
2021-07-03T05:07:06Z,42.805,6.029,13.3021,4.60031,2470.366,2021-7-03T07:08:21Z
2021-07-03T05:10:09Z,42.805,6.029,13.3038,4.60015,2470.38,2021-7-03T07:11:24Z
2021-07-03T05:13:12Z,42.805,6.029,13.3039,4.60081,2470.366,2021-7-03T07:14:27Z
2021-07-03T05:16:15Z,42.805,6.029,13.3019,4.60078,2470.343,2021-7-03T07:17:30Z
2021-07-03T05:19:18Z,42.805,6.029,13.3034,4.60052,2470.38,2021-7-03T07:20:33Z
2021-07-03T05:22:22Z,42.805,6.029,13.3043,4.60031,2470.38,2021-7-03T07:23:37Z
2021-07-03T05:25:25Z,42.805,6.029,13.3052,4.60041,2470.343,2021-7-03T07:26:40Z
2021-07-03T05:28:28Z,42.805,6.029,13.3031,4.60076,2470.404,2021-7-03T07:29:43Z
2021-07-03T05:31:31Z,42.805,6.029,13.3029,4.60099,2470.357,2021-7-03T07:32:46Z
2021-07-03T05:34:34Z,42.805,6.029,13.3030,4.60039,2470.38,2021-7-03T07:35:49Z
2021-07-03T05:37:37Z,42.805,6.029,13.3030,4.60039,2470.357,2021-7-03T07:38:52Z
2021-07-03T05:40:40Z,42.805,6.029,13.3015,4.60049,2470.357,2021-7-03T07:41:55Z
2021-07-03T05:43:43Z,42.805,6.029,13.3030,4.60063,2470.366,2021-7-03T07:44:58Z
2021-07-03T05:46:46Z,42.805,6.029,13.3043,4.60054,2470.357,2021-7-03T07:48:01Z
2021-07-03T05:49:50Z,42.805,6.029,13.3039,4.60070,2470.357,2021-7-03T07:51:05Z
2021-07-03T05:52:53Z,42.805,6.029,13.3041,4.60061,2470.343,2021-7-03T07:54:08Z
2021-07-03T05:55:56Z,42.805,6.029,13.3038,4.60042,2470.32,2021-7-03T07:57:11Z
2021-07-03T05:58:59Z,42.805,6.029,13.3029,4.60049,2470.32,2021-7-03T08:00:14Z
2021-07-03T06:02:02Z,42.805,6.029,13.3031,4.60026,2470.343,2021-7-03T08:03:17Z
2021-07-03T06:05:05Z,42.805,6.029,13.3023,4.60057,2470.32,2021-7-03T08:06:20Z
2021-07-03T06:08:08Z,42.805,6.029,13.3018,4.60064,2470.357,2021-7-03T08:09:23Z
2021-07-03T06:11:11Z,42.805,6.029,13.3041,4.60036,2470.38,2021-7-03T08:12:26Z
2021-07-03T06:14:15Z,42.805,6.029,13.3027,4.60018,2470.297,2021-7-03T08:15:30Z
2021-07-03T06:17:18Z,42.805,6.029,13.3007,4.60035,2470.366,2021-7-03T08:18:33Z
2021-07-03T06:20:21Z,42.805,6.029,13.3021,4.60041,2470.343,2021-7-03T08:21:36Z
2021-07-03T06:23:24Z,42.805,6.029,13.3024,4.60046,2470.343,2021-7-03T08:24:39Z
2021-07-03T06:26:27Z,42.805,6.029,13.3021,4.60029,2470.357,2021-7-03T08:27:42Z
2021-07-03T06:29:30Z,42.805,6.029,13.3019,4.60027,2470.357,2021-7-03T08:30:45Z
2021-07-03T06:32:33Z,42.805,6.029,13.3016,4.60047,2470.357,2021-7-03T08:33:48Z
2021-07-03T06:35:36Z,42.805,6.029,13.3017,4.60026,2470.343,2021-7-03T08:36:51Z
2021-07-03T06:38:40Z,42.805,6.029,13.3004,4.60021,2470.343,2021-7-03T08:39:54Z
2021-07-03T06:41:43Z,42.805,6.029,13.3034,4.60039,2470.343,2021-7-03T08:42:58Z
2021-07-03T06:44:46Z,42.805,6.029,13.3026,4.60027,2470.343,2021-7-03T08:46:01Z
2021-07-03T06:47:49Z,42.805,6.029,13.3026,4.60032,2470.343,2021-7-03T08:49:04Z
2021-07-03T06:50:52Z,42.805,6.029,13.3028,4.60042,2470.343,2021-7-03T08:52:07Z
2021-07-03T06:53:55Z,42.805,6.029,13.3029,4.60057,2470.357,2021-7-03T08:55:10Z
2021-07-03T06:56:58Z,42.805,6.029,13.3039,4.60029,2470.32,2021-7-03T08:58:13Z
2021-07-03T07:00:01Z,42.805,6.029,13.3026,4.60039,2470.33,2021-7-03T09:01:16Z
2021-07-03T07:03:04Z,42.805,6.029,13.3026,4.60059,2470.334,2021-7-03T09:04:19Z
2021-07-03T07:06:08Z,42.805,6.029,13.3038,4.60069,2470.334,2021-7-03T09:07:23Z
2021-07-03T07:09:11Z,42.805,6.029,13.3036,4.60069,2470.334,2021-7-03T09:10:26Z
2021-07-03T07:12:14Z,42.805,6.029,13.3045,4.60047,2470.32,2021-7-03T09:13:29Z
2021-07-03T07:15:17Z,42.805,6.029,13.3035,4.60033,2470.334,2021-7-03T09:16:32Z
2021-07-03T07:18:20Z,42.805,6.029,13.3020,4.60019,2470.297,2021-7-03T09:19:35Z
2021-07-03T07:21:23Z,42.805,6.029,13.3001,4.60045,2470.334,2021-7-03T09:22:38Z
2021-07-03T07:24:26Z,42.805,6.029,13.3010,4.60016,2470.32,2021-7-03T09:25:41Z
2021-07-03T07:27:29Z,42.805,6.029,13.3012,4.60033,2470.357,2021-7-03T09:28:44Z
2021-07-03T07:30:32Z,42.805,6.029,13.3011,4.60031,2470.334,2021-7-03T09:31:47Z
2021-07-03T07:33:36Z,42.805,6.029,13.3003,4.60023,2470.297,2021-7-03T09:34:51Z
2021-07-03T07:36:39Z,42.805,6.029,13.3018,4.60050,2470.32,2021-7-03T09:37:54Z
2021-07-03T07:39:42Z,42.805,6.029,13.3033,4.60024,2470.334,2021-7-03T09:40:57Z
2021-07-03T07:42:45Z,42.805,6.029,13.3024,4.60067,2470.31,2021-7-03T09:44:00Z
2021-07-03T07:45:48Z,42.805,6.029,13.3026,4.60027,2470.31,2021-7-03T09:47:03Z
2021-07-03T07:48:51Z,42.805,6.029,13.3030,4.60058,2470.334,2021-7-03T09:50:06Z
2021-07-03T07:51:54Z,42.805,6.029,13.3027,4.60039,2470.287,2021-7-03T09:53:09Z
2021-07-03T07:54:57Z,42.805,6.029,13.3034,4.60049,2470.334,2021-7-03T09:56:12Z
2021-07-03T07:58:01Z,42.805,6.029,13.3031,4.60028,2470.334,2021-7-03T09:59:16Z
2021-07-03T08:01:04Z,42.805,6.029,13.3034,4.60044,2470.297,2021-7-03T10:02:19Z
2021-07-03T08:04:07Z,42.805,6.029,13.3011,4.60046,2470.273,2021-7-03T10:05:22Z
2021-07-03T08:07:10Z,42.805,6.029,13.3027,4.60026,2470.31,2021-7-03T10:08:25Z
2021-07-03T08:10:13Z,42.805,6.029,13.3017,4.60026,2470.297,2021-7-03T10:11:28Z
2021-07-03T08:13:16Z,42.805,6.029,13.3027,4.60042,2470.287,2021-7-03T10:14:31Z
2021-07-03T08:16:19Z,42.805,6.029,13.3044,4.60088,2470.31,2021-7-03T10:17:34Z
2021-07-03T08:19:22Z,42.805,6.029,13.3029,4.60058,2470.31,2021-7-03T10:20:37Z
2021-07-03T08:22:26Z,42.805,6.029,13.3042,4.60048,2470.297,2021-7-03T10:23:41Z
2021-07-03T08:25:29Z,42.805,6.029,13.3051,4.60043,2470.31,2021-7-03T10:26:44Z
2021-07-03T08:28:32Z,42.805,6.029,13.3029,4.60016,2470.287,2021-7-03T10:29:47Z
2021-07-03T08:31:35Z,42.805,6.029,13.3019,4.60039,2470.334,2021-7-03T10:32:50Z
2021-07-03T08:34:38Z,42.805,6.029,13.3011,4.60057,2470.31,2021-7-03T10:35:53Z
2021-07-03T08:37:41Z,42.805,6.029,13.3028,4.60049,2470.31,2021-7-03T10:38:56Z
2021-07-03T08:40:44Z,42.805,6.029,13.3014,4.60041,2470.25,2021-7-03T10:41:59Z
2021-07-03T08:43:47Z,42.805,6.029,13.3025,4.60034,2470.31,2021-7-03T10:45:02Z
2021-07-03T08:46:51Z,42.805,6.029,13.3021,4.60070,2470.31,2021-7-03T10:48:06Z
2021-07-03T08:49:54Z,42.805,6.029,13.3034,4.60072,2470.273,2021-7-03T10:51:09Z
2021-07-03T08:52:57Z,42.805,6.029,13.3029,4.60054,2470.31,2021-7-03T10:54:12Z
2021-07-03T08:56:00Z,42.805,6.029,13.3037,4.60086,2470.264,2021-7-03T10:57:15Z
2021-07-03T08:59:03Z,42.805,6.029,13.3042,4.60032,2470.287,2021-7-03T11:00:18Z
2021-07-03T09:02:06Z,42.805,6.029,13.3029,4.60046,2470.32,2021-7-03T11:03:21Z
2021-07-03T09:05:09Z,42.805,6.029,13.3026,4.60059,2470.273,2021-7-03T11:06:24Z
2021-07-03T09:08:12Z,42.805,6.029,13.3035,4.60062,2470.334,2021-7-03T11:09:27Z
2021-07-03T09:11:15Z,42.805,6.029,13.3043,4.60069,2470.25,2021-7-03T11:12:30Z
2021-07-03T09:14:19Z,42.805,6.029,13.3040,4.60091,2470.287,2021-7-03T11:15:34Z
2021-07-03T09:17:22Z,42.805,6.029,13.3055,4.60080,2470.273,2021-7-03T11:18:37Z
2021-07-03T09:20:25Z,42.805,6.029,13.3024,4.60066,2470.25,2021-7-03T11:21:40Z
2021-07-03T09:23:28Z,42.805,6.029,13.3026,4.60050,2470.297,2021-7-03T11:24:43Z
2021-07-03T09:26:31Z,42.805,6.029,13.3032,4.60039,2470.264,2021-7-03T11:27:46Z
2021-07-03T09:29:34Z,42.805,6.029,13.3005,4.60038,2470.25,2021-7-03T11:30:49Z
2021-07-03T09:32:37Z,42.805,6.029,13.3022,4.60041,2470.297,2021-7-03T11:33:52Z
2021-07-03T09:35:40Z,42.805,6.029,13.3029,4.60016,2470.287,2021-7-03T11:36:55Z
2021-07-03T09:38:44Z,42.805,6.029,13.3017,4.60016,2470.25,2021-7-03T11:39:59Z
2021-07-03T09:41:47Z,42.805,6.029,13.3019,4.60027,2470.31,2021-7-03T11:43:02Z
2021-07-03T09:44:50Z,42.805,6.029,13.3021,4.60034,2470.273,2021-7-03T11:46:05Z
2021-07-03T09:47:53Z,42.805,6.029,13.3024,4.60031,2470.264,2021-7-03T11:49:08Z
2021-07-03T09:50:56Z,42.805,6.029,13.3011,4.60010,2470.297,2021-7-03T11:52:11Z
2021-07-03T09:53:59Z,42.805,6.029,13.3010,4.60046,2470.287,2021-7-03T11:55:14Z
2021-07-03T09:57:02Z,42.805,6.029,13.3010,4.60029,2470.273,2021-7-03T11:58:17Z
2021-07-03T10:00:05Z,42.805,6.029,13.3033,4.60039,2470.287,2021-7-03T12:01:20Z
2021-07-03T10:03:09Z,42.805,6.029,13.3004,4.60025,2470.287,2021-7-03T12:04:24Z
2021-07-03T10:06:12Z,42.805,6.029,13.3019,4.60036,2470.273,2021-7-03T12:07:27Z
2021-07-03T10:09:15Z,42.805,6.029,13.3019,4.60022,2470.31,2021-7-03T12:10:30Z
2021-07-03T10:12:18Z,42.805,6.029,13.3019,4.60029,2470.287,2021-7-03T12:13:33Z
2021-07-03T10:15:21Z,42.805,6.029,13.3009,4.60033,2470.297,2021-7-03T12:16:36Z
2021-07-03T10:18:24Z,42.805,6.029,13.3023,4.60031,2470.287,2021-7-03T12:19:39Z
2021-07-03T10:21:27Z,42.805,6.029,13.3029,4.60031,2470.287,2021-7-03T12:22:42Z
2021-07-03T10:24:30Z,42.805,6.029,13.3008,4.60050,2470.334,2021-7-03T12:25:45Z
2021-07-03T10:27:34Z,42.805,6.029,13.3014,4.60042,2470.297,2021-7-03T12:28:49Z
2021-07-03T10:30:37Z,42.805,6.029,13.3007,4.60058,2470.31,2021-7-03T12:31:52Z
2021-07-03T10:33:40Z,42.805,6.029,13.3013,4.60031,2470.287,2021-7-03T12:34:55Z
2021-07-03T10:36:43Z,42.805,6.029,13.3017,4.60039,2470.31,2021-7-03T12:37:58Z
2021-07-03T10:39:46Z,42.805,6.029,13.3034,4.60031,2470.31,2021-7-03T12:41:01Z
2021-07-03T10:42:49Z,42.805,6.029,13.3021,4.60024,2470.297,2021-7-03T12:44:04Z
2021-07-03T10:45:52Z,42.805,6.029,13.3015,4.60032,2470.32,2021-7-03T12:47:07Z
2021-07-03T10:48:55Z,42.805,6.029,13.3001,4.60022,2470.31,2021-7-03T12:50:10Z
2021-07-03T10:51:59Z,42.805,6.029,13.3014,4.60020,2470.31,2021-7-03T12:53:14Z
2021-07-03T10:55:02Z,42.805,6.029,13.3008,4.60024,2470.31,2021-7-03T12:56:17Z
2021-07-03T10:58:05Z,42.805,6.029,13.3006,4.60017,2470.357,2021-7-03T12:59:20Z
2021-07-03T11:01:08Z,42.805,6.029,13.3004,4.60013,2470.273,2021-7-03T13:02:23Z
2021-07-03T11:04:11Z,42.805,6.029,13.3007,4.60009,2470.32,2021-7-03T13:05:26Z
2021-07-03T11:07:14Z,42.805,6.029,13.3008,4.60036,2470.334,2021-7-03T13:08:29Z
2021-07-03T11:10:17Z,42.805,6.029,13.3011,4.60027,2470.334,2021-7-03T13:11:32Z
2021-07-03T11:13:20Z,42.805,6.029,13.3035,4.60010,2470.297,2021-7-03T13:14:35Z
2021-07-03T11:16:23Z,42.805,6.029,13.3006,4.60022,2470.31,2021-7-03T13:17:38Z
2021-07-03T11:19:27Z,42.805,6.029,13.3009,4.60033,2470.31,2021-7-03T13:20:42Z
2021-07-03T11:22:30Z,42.805,6.029,13.3000,4.60019,2470.32,2021-7-03T13:23:45Z
2021-07-03T11:25:33Z,42.805,6.029,13.3009,4.60023,2470.32,2021-7-03T13:26:48Z
2021-07-03T11:28:36Z,42.805,6.029,13.3025,4.60014,2470.297,2021-7-03T13:29:51Z
2021-07-03T11:31:39Z,42.805,6.029,13.3009,4.60014,2470.297,2021-7-03T13:32:54Z
2021-07-03T11:34:42Z,42.805,6.029,13.3004,4.60021,2470.32,2021-7-03T13:35:57Z
2021-07-03T11:37:45Z,42.805,6.029,13.3004,4.60028,2470.287,2021-7-03T13:39:00Z
2021-07-03T11:40:48Z,42.805,6.029,13.3019,4.60014,2470.32,2021-7-03T13:42:03Z
2021-07-03T11:43:52Z,42.805,6.029,13.3019,4.60016,2470.334,2021-7-03T13:45:07Z
2021-07-03T11:46:55Z,42.805,6.029,13.3019,4.60029,2470.32,2021-7-03T13:48:10Z
2021-07-03T11:49:58Z,42.805,6.029,13.3016,4.60016,2470.297,2021-7-03T13:51:13Z
2021-07-03T11:53:01Z,42.805,6.029,13.3015,4.60026,2470.334,2021-7-03T13:54:16Z
2021-07-03T11:56:04Z,42.805,6.029,13.3015,4.60025,2470.334,2021-7-03T13:57:19Z
2021-07-03T11:59:07Z,42.805,6.029,13.3020,4.60020,2470.334,2021-7-03T14:00:22Z
2021-07-03T12:02:10Z,42.805,6.029,13.3009,4.60037,2470.297,2021-7-03T14:03:25Z
2021-07-03T12:05:13Z,42.805,6.029,13.3022,4.60034,2470.334,2021-7-03T14:06:28Z
2021-07-03T12:08:17Z,42.805,6.029,13.3021,4.60011,2470.32,2021-7-03T14:09:32Z
2021-07-03T12:11:20Z,42.805,6.029,13.3000,4.60059,2470.343,2021-7-03T14:12:35Z
2021-07-03T12:14:23Z,42.805,6.029,13.3024,4.60033,2470.334,2021-7-03T14:15:38Z
2021-07-03T12:17:26Z,42.805,6.029,13.3011,4.60021,2470.32,2021-7-03T14:18:41Z
2021-07-03T12:20:29Z,42.805,6.029,13.3010,4.60014,2470.334,2021-7-03T14:21:44Z
2021-07-03T12:23:32Z,42.805,6.029,13.3009,4.60022,2470.357,2021-7-03T14:24:47Z
2021-07-03T12:26:35Z,42.805,6.029,13.3014,4.60020,2470.357,2021-7-03T14:27:50Z
2021-07-03T12:29:38Z,42.805,6.029,13.3015,4.60023,2470.32,2021-7-03T14:30:53Z
2021-07-03T12:32:42Z,42.805,6.029,13.3022,4.60020,2470.334,2021-7-03T14:33:57Z
2021-07-03T12:35:45Z,42.805,6.029,13.3019,4.60031,2470.297,2021-7-03T14:37:00Z
2021-07-03T12:38:48Z,42.805,6.029,13.3031,4.60016,2470.343,2021-7-03T14:40:03Z
2021-07-03T12:41:51Z,42.805,6.029,13.3013,4.60049,2470.343,2021-7-03T14:43:06Z
2021-07-03T12:44:54Z,42.805,6.029,13.3024,4.60036,2470.334,2021-7-03T14:46:09Z
2021-07-03T12:47:57Z,42.805,6.029,13.3008,4.60030,2470.357,2021-7-03T14:49:12Z
2021-07-03T12:51:00Z,42.805,6.029,13.3001,4.60044,2470.32,2021-7-03T14:52:15Z
2021-07-03T12:54:03Z,42.805,6.029,13.3009,4.60039,2470.366,2021-7-03T14:55:18Z
2021-07-03T12:57:07Z,42.805,6.029,13.3016,4.60031,2470.357,2021-7-03T14:58:22Z
2021-07-03T13:00:10Z,42.805,6.029,13.3028,4.60025,2470.357,2021-7-03T15:01:25Z
2021-07-03T13:03:13Z,42.805,6.029,13.3015,4.60031,2470.366,2021-7-03T15:04:28Z
2021-07-03T13:06:16Z,42.805,6.029,13.3014,4.60033,2470.32,2021-7-03T15:07:31Z
2021-07-03T13:09:19Z,42.805,6.029,13.3001,4.60048,2470.343,2021-7-03T15:10:34Z
2021-07-03T13:12:22Z,42.805,6.029,13.3021,4.60022,2470.343,2021-7-03T15:13:37Z
2021-07-03T13:15:25Z,42.805,6.029,13.3008,4.60047,2470.366,2021-7-03T15:16:40Z
2021-07-03T13:18:28Z,42.805,6.029,13.3017,4.60047,2470.343,2021-7-03T15:19:43Z
2021-07-03T13:21:32Z,42.805,6.029,13.3018,4.60072,2470.366,2021-7-03T15:22:47Z
2021-07-03T13:24:35Z,42.805,6.029,13.3022,4.60029,2470.343,2021-7-03T15:25:50Z
2021-07-03T13:27:38Z,42.805,6.029,13.3021,4.60023,2470.366,2021-7-03T15:28:53Z
2021-07-03T13:30:41Z,42.805,6.029,13.3007,4.60031,2470.366,2021-7-03T15:31:56Z
2021-07-03T13:33:44Z,42.805,6.029,13.3011,4.60038,2470.334,2021-7-03T15:34:59Z
2021-07-03T13:36:47Z,42.805,6.029,13.3029,4.60049,2470.357,2021-7-03T15:38:02Z
2021-07-03T13:39:50Z,42.805,6.029,13.3011,4.60023,2470.343,2021-7-03T15:41:05Z
2021-07-03T13:42:53Z,42.805,6.029,13.3006,4.60042,2470.357,2021-7-03T15:44:08Z
2021-07-03T13:45:56Z,42.805,6.029,13.3026,4.60064,2470.357,2021-7-03T15:47:11Z
2021-07-03T13:49:00Z,42.805,6.029,13.3000,4.60069,2470.343,2021-7-03T15:50:15Z
2021-07-03T13:52:03Z,42.805,6.029,13.3031,4.60041,2470.343,2021-7-03T15:53:18Z
2021-07-03T13:55:06Z,42.805,6.029,13.3014,4.60067,2470.38,2021-7-03T15:56:21Z
2021-07-03T13:58:09Z,42.805,6.029,13.3021,4.60062,2470.357,2021-7-03T15:59:24Z
2021-07-03T14:01:12Z,42.805,6.029,13.3026,4.60066,2470.343,2021-7-03T16:02:27Z
2021-07-03T14:04:15Z,42.805,6.029,13.3020,4.60033,2470.32,2021-7-03T16:05:30Z
2021-07-03T14:07:18Z,42.805,6.029,13.3008,4.60057,2470.38,2021-7-03T16:08:33Z
2021-07-03T14:10:21Z,42.805,6.029,13.3021,4.60074,2470.38,2021-7-03T16:11:36Z
2021-07-03T14:13:25Z,42.805,6.029,13.3024,4.60050,2470.334,2021-7-03T16:14:40Z
2021-07-03T14:16:28Z,42.805,6.029,13.3015,4.60062,2470.366,2021-7-03T16:17:43Z
2021-07-03T14:19:31Z,42.805,6.029,13.3027,4.60039,2470.32,2021-7-03T16:20:46Z
2021-07-03T14:22:34Z,42.805,6.029,13.3022,4.60033,2470.343,2021-7-03T16:23:49Z
2021-07-03T14:25:37Z,42.805,6.029,13.3017,4.60026,2470.366,2021-7-03T16:26:52Z
2021-07-03T14:28:40Z,42.805,6.029,13.3036,4.60073,2470.38,2021-7-03T16:29:55Z
2021-07-03T14:31:43Z,42.805,6.029,13.3035,4.60022,2470.343,2021-7-03T16:32:58Z
2021-07-03T14:34:46Z,42.805,6.029,13.3018,4.60022,2470.404,2021-7-03T16:36:01Z
2021-07-03T14:37:50Z,42.805,6.029,13.3008,4.60064,2470.366,2021-7-03T16:39:05Z
2021-07-03T14:40:53Z,42.805,6.029,13.3025,4.60081,2470.357,2021-7-03T16:42:08Z
2021-07-03T14:43:56Z,42.805,6.029,13.3030,4.60069,2470.357,2021-7-03T16:45:11Z
2021-07-03T14:46:59Z,42.805,6.029,13.3031,4.60036,2470.366,2021-7-03T16:48:14Z
2021-07-03T14:50:02Z,42.805,6.029,13.2996,4.60028,2470.343,2021-7-03T16:51:17Z
2021-07-03T14:53:05Z,42.805,6.029,13.3005,4.60038,2470.357,2021-7-03T16:54:20Z
2021-07-03T14:56:08Z,42.805,6.029,13.3021,4.60042,2470.366,2021-7-03T16:57:23Z
2021-07-03T14:59:11Z,42.805,6.029,13.3025,4.60051,2470.366,2021-7-03T17:00:26Z
2021-07-03T15:02:15Z,42.805,6.029,13.3027,4.60067,2470.343,2021-7-03T17:03:30Z
2021-07-03T15:05:18Z,42.805,6.029,13.3010,4.60064,2470.357,2021-7-03T17:06:33Z
2021-07-03T15:08:21Z,42.805,6.029,13.3030,4.60075,2470.343,2021-7-03T17:09:36Z
2021-07-03T15:11:24Z,42.805,6.029,13.3037,4.60062,2470.343,2021-7-03T17:12:39Z
2021-07-03T15:14:27Z,42.805,6.029,13.3030,4.60054,2470.343,2021-7-03T17:15:42Z